Slayton, MN

2:38 AM CST on November 21, 2017 (GMT -0600)
Slayton

Weather History for KDVP - May, 2013

Change the Weather History Date:

Thursday, May 30, 2013

  Actual Average (KOTG) Record (KOTG)
Temperature  
Mean Temperature 66 °F -  
Max Temperature 72 °F 68 °F 90 °F (1979)
Min Temperature 61 °F 49 °F 40 °F (1984)
Cooling Degree Days 2    
Growing Degree Days 16 (Base 50)    
Moisture  
Dew Point 59 °F    
Average Humidity 79    
Maximum Humidity 97    
Minimum Humidity 57    
Precipitation  
Precipitation 0.03 in - - ()
Sea Level Pressure  
Sea Level Pressure 29.53 in    
Wind  
Wind Speed 18 mph (SSE)    
Max Wind Speed 29 mph    
Max Gust Speed 34 mph    
Visibility 10 miles    
Events Rain , Thunderstorm    
Averages and records for this station are not official NWS values.
T = Trace of Precipitation, MM = Missing Value Source: NWS Daily Summary

Daily Weather History Graph

Daily Weather History Graph

Search for Another Location

Airport or City:

Trip Planner

Search our weather history database for the weather conditions in past years. The results will help you decide how hot, cold, wet, or windy it might be!

Date:

Astronomy

May. 30, 2013 Rise Set
Actual Time 5:44 AM CDT 8:57 PM CDT
Civil Twilight 5:09 AM CDT 9:32 PM CDT
Nautical Twilight 4:23 AM CDT 10:18 PM CDT
Astronomical Twilight 3:28 AM CDT 11:14 PM CDT
Moon 12:51 AM CDT (5/30) 12:02 PM CDT (5/30)
Length of Visible Light 16h 23m
Length of Day
15h 13m
Waning Gibbous, 62% of the Moon is Illuminated
May 30
Waning Gibbous
May 31
Last Quarter
Jun 8
New
Jun 16
First Quarter
Jun 23
Full

Hourly Weather History & Observations

Time (CDT) Temp. Dew Point Humidity Pressure Visibility Wind Dir Wind Speed Gust Speed Precip Events Conditions
12:13 AM 61.9 °F 61.2 °F 97% 29.58 in 10.0 mi ESE 13.8 mph - N/A   Overcast
12:33 AM 62.6 °F 61.5 °F 96% 29.59 in 10.0 mi SSE 18.4 mph 23.0 mph N/A   Overcast
12:53 AM 62.6 °F 60.8 °F 94% 29.58 in 10.0 mi SSE 18.4 mph 27.6 mph N/A   Mostly Cloudy
1:14 AM 62.2 °F 60.8 °F 95% 29.56 in 10.0 mi SSE 15.0 mph 23.0 mph N/A   Light Drizzle
1:33 AM 62.4 °F 60.4 °F 93% 29.55 in 10.0 mi SSE 20.7 mph - N/A   Scattered Clouds
1:54 AM 62.6 °F 60.4 °F 93% 29.54 in 10.0 mi SSE 17.3 mph 23.0 mph N/A   Scattered Clouds
2:13 AM 62.8 °F 61.2 °F 94% 29.53 in 10.0 mi SE 19.6 mph - N/A   Scattered Clouds
2:33 AM 62.6 °F 60.8 °F 94% 29.53 in 10.0 mi SE 21.9 mph 27.6 mph N/A   Clear
2:52 AM 62.1 °F 60.3 °F 94% 29.52 in 10.0 mi SE 19.6 mph 24.2 mph N/A   Clear
3:13 AM 61.9 °F 60.8 °F 96% 29.51 in 10.0 mi SE 12.7 mph - N/A   Mostly Cloudy
3:33 AM 61.7 °F 60.8 °F 97% 29.50 in 10.0 mi SE 13.8 mph - N/A   Overcast
3:53 AM 61.7 °F 61.0 °F 97% 29.52 in 7.0 mi SSE 16.1 mph - N/A   Overcast
4:13 AM 61.9 °F 61.2 °F 97% 29.52 in 7.0 mi SSE 11.5 mph - N/A   Overcast
4:33 AM 62.1 °F 61.2 °F 97% 29.51 in 10.0 mi SSE 9.2 mph - N/A   Overcast
4:54 AM 62.6 °F 61.0 °F 94% 29.52 in 10.0 mi SSE 12.7 mph - N/A   Overcast
5:13 AM 62.8 °F 60.1 °F 91% 29.51 in 10.0 mi SSE 15.0 mph - N/A   Overcast
5:33 AM 63.0 °F 59.9 °F 90% 29.51 in 10.0 mi SSE 15.0 mph - N/A   Mostly Cloudy
5:53 AM 62.6 °F 59.9 °F 91% 29.53 in 10.0 mi South 18.4 mph - N/A   Overcast
6:14 AM 62.6 °F 59.7 °F 90% 29.53 in 10.0 mi South 17.3 mph 26.5 mph N/A   Overcast
6:33 AM 62.6 °F 59.5 °F 90% 29.54 in 10.0 mi South 18.4 mph 25.3 mph N/A Rain Light Rain
6:53 AM 62.2 °F 59.4 °F 90% 29.54 in 10.0 mi South 16.1 mph 24.2 mph N/A   Overcast
7:14 AM 62.1 °F 59.4 °F 91% 29.54 in 10.0 mi South 15.0 mph - N/A   Overcast
7:34 AM 61.9 °F 59.2 °F 91% 29.53 in 10.0 mi South 15.0 mph 20.7 mph N/A   Mostly Cloudy
7:53 AM 62.6 °F 59.5 °F 90% 29.53 in 10.0 mi South 16.1 mph 21.9 mph N/A   Scattered Clouds
8:13 AM 63.1 °F 59.2 °F 87% 29.53 in 10.0 mi SSW 19.6 mph 26.5 mph N/A   Scattered Clouds
8:33 AM 63.7 °F 59.4 °F 86% 29.54 in 10.0 mi SSW 20.7 mph - N/A   Clear
8:53 AM 64.4 °F 59.0 °F 83% 29.55 in 10.0 mi SSW 20.7 mph - N/A   Scattered Clouds
9:14 AM 65.1 °F 59.0 °F 81% 29.54 in 10.0 mi South 19.6 mph 26.5 mph N/A   Scattered Clouds
9:34 AM 65.8 °F 58.8 °F 78% 29.55 in 10.0 mi South 17.3 mph - N/A   Clear
9:53 AM 66.6 °F 59.4 °F 78% 29.55 in 10.0 mi South 18.4 mph 24.2 mph N/A   Scattered Clouds
10:13 AM 67.3 °F 58.8 °F 74% 29.55 in 10.0 mi South 20.7 mph 24.2 mph N/A   Scattered Clouds
10:33 AM 68.4 °F 61.0 °F 77% 29.54 in 10.0 mi South 21.9 mph 27.6 mph N/A   Clear
10:53 AM 69.1 °F 60.4 °F 74% 29.54 in 10.0 mi SSE 24.2 mph 28.8 mph N/A   Clear
11:14 AM 69.8 °F 60.3 °F 72% 29.55 in 10.0 mi South 23.0 mph 26.5 mph N/A   Scattered Clouds
11:32 AM 69.6 °F 60.3 °F 72% 29.54 in 10.0 mi SSE 23.0 mph 29.9 mph N/A   Mostly Cloudy
11:53 AM 69.8 °F 59.9 °F 71% 29.54 in 10.0 mi South 20.7 mph 27.6 mph N/A   Scattered Clouds
12:13 PM 70.2 °F 59.0 °F 68% 29.55 in 10.0 mi South 21.9 mph 31.1 mph N/A   Mostly Cloudy
12:33 PM 68.9 °F 58.5 °F 69% 29.54 in 10.0 mi SSE 20.7 mph 24.2 mph N/A   Scattered Clouds
12:54 PM 68.9 °F 59.5 °F 72% 29.54 in 10.0 mi SSE 23.0 mph 28.8 mph N/A   Clear
1:13 PM 68.2 °F 59.2 °F 73% 29.54 in 10.0 mi SSE 23.0 mph 26.5 mph N/A   Scattered Clouds
1:33 PM 68.0 °F 59.9 °F 75% 29.54 in 10.0 mi SSE 20.7 mph - N/A   Mostly Cloudy
1:53 PM 68.4 °F 60.3 °F 75% 29.54 in 10.0 mi SSE 20.7 mph 25.3 mph N/A   Overcast
2:14 PM 69.3 °F 59.4 °F 71% 29.54 in 10.0 mi SSE 26.5 mph 29.9 mph N/A   Mostly Cloudy
2:33 PM 69.8 °F 58.3 °F 67% 29.53 in 10.0 mi SSE 26.5 mph 32.2 mph N/A   Mostly Cloudy
2:53 PM 68.7 °F 58.8 °F 71% 29.53 in 10.0 mi SSE 28.8 mph 34.5 mph N/A   Overcast
3:12 PM 68.2 °F 59.0 °F 72% 29.53 in 10.0 mi SSE 27.6 mph 32.2 mph N/A   Overcast
3:33 PM 68.2 °F 58.6 °F 71% 29.52 in 10.0 mi South 20.7 mph 29.9 mph N/A   Mostly Cloudy
3:53 PM 68.4 °F 58.5 °F 71% 29.52 in 10.0 mi SSE 20.7 mph 27.6 mph N/A   Scattered Clouds
4:14 PM 70.5 °F 59.2 °F 67% 29.51 in 10.0 mi South 16.1 mph 20.7 mph N/A   Scattered Clouds
4:33 PM 71.1 °F 58.1 °F 63% 29.50 in 10.0 mi South 18.4 mph - N/A   Mostly Cloudy
4:53 PM 72.5 °F 58.8 °F 62% 29.50 in 10.0 mi SSE 19.6 mph 26.5 mph N/A   Scattered Clouds
5:13 PM 70.9 °F 59.0 °F 66% 29.50 in 10.0 mi SSE 18.4 mph 23.0 mph N/A   Mostly Cloudy
5:34 PM 72.3 °F 59.0 °F 63% 29.50 in 10.0 mi SSE 19.6 mph 23.0 mph N/A   Mostly Cloudy
5:53 PM 72.0 °F 57.7 °F 61% 29.49 in 10.0 mi South 20.7 mph 25.3 mph N/A   Mostly Cloudy
6:13 PM 71.6 °F 57.9 °F 62% 29.49 in 10.0 mi South 19.6 mph 28.8 mph N/A   Mostly Cloudy
6:33 PM 70.7 °F 57.4 °F 63% 29.49 in 10.0 mi South 16.1 mph 25.3 mph N/A   Mostly Cloudy
6:53 PM 69.8 °F 57.6 °F 65% 29.49 in 10.0 mi South 16.1 mph 24.2 mph N/A   Scattered Clouds
7:13 PM 69.3 °F 57.9 °F 67% 29.49 in 10.0 mi South 16.1 mph 21.9 mph N/A   Clear
7:32 PM 68.7 °F 58.1 °F 69% 29.50 in 10.0 mi SSE 13.8 mph 20.7 mph N/A   Clear
7:53 PM 68.0 °F 58.8 °F 72% 29.51 in 10.0 mi SSE 13.8 mph - N/A   Clear
8:13 PM 67.5 °F 59.0 °F 74% 29.50 in 10.0 mi SSE 13.8 mph - N/A   Clear
8:33 PM 67.1 °F 59.2 °F 76% 29.50 in 10.0 mi SSE 11.5 mph - N/A   Clear
8:53 PM 66.2 °F 59.7 °F 80% 29.51 in 10.0 mi SSE 13.8 mph - N/A   Clear
9:13 PM 65.3 °F 59.7 °F 82% 29.51 in 10.0 mi SSE 11.5 mph - N/A   Clear
9:33 PM 64.9 °F 59.9 °F 84% 29.51 in 10.0 mi SSE 12.7 mph - N/A   Clear
9:54 PM 64.4 °F 59.7 °F 85% 29.50 in 10.0 mi SSE 15.0 mph - N/A   Clear
10:13 PM 64.4 °F 59.9 °F 85% 29.52 in 10.0 mi SSE 16.1 mph - N/A   Scattered Clouds
10:33 PM 64.8 °F 59.9 °F 84% 29.54 in 10.0 mi South 15.0 mph 19.6 mph N/A   Mostly Cloudy
10:53 PM 61.2 °F 52.9 °F 74% 29.53 in 10.0 mi South 20.7 mph 32.2 mph N/A Rain , Thunderstorm Rain
11:14 PM 61.9 °F 50.5 °F 66% 29.54 in 7.0 mi SW 26.5 mph 34.5 mph 0.01 in Rain Rain
11:33 PM 64.0 °F 48.7 °F 57% 29.52 in 10.0 mi SW 6.9 mph - 0.03 in Rain Light Rain
11:53 PM 63.3 °F 49.1 °F 60% 29.52 in 10.0 mi South 8.1 mph - 0.03 in   Scattered Clouds